IZ1GCT Weather Reports


time (UTC)temp
F
wind
direction
speed
knots
gust
knots
rain 1hr
in
rain 24hr
in
rain mn
in
humidity
%
barometer
mb
20260506203547 56 112 0.0 0.0 0.00 0.19 0.19 53 1013.5
20260506203047 57 112 0.9 1.7 0.00 0.19 0.19 52 1013.2
20260506202548 57 129 0.9 1.7 0.00 0.19 0.19 50 1013.3
20260506202047 57 135 6.1 7.0 0.00 0.19 0.19 47 1013.2
20260506201547 58 158 1.7 2.6 0.00 0.19 0.19 45 1012.9
20260506201048 59 135 2.6 4.3 0.00 0.19 0.19 44 1012.9
20260506200548 58 135 6.1 7.8 0.00 0.19 0.19 45 1012.7
20260506200047 58 135 4.3 5.2 0.00 0.19 0.19 45 1012.6
20260506195548 58 118 1.7 2.6 0.00 0.19 0.19 45 1012.6
20260506195048 59 158 1.7 2.6 0.00 0.19 0.19 42 1012.5
20260506194547 59 147 1.7 2.6 0.00 0.19 0.19 42 1012.4
20260506194047 60 152 0.9 1.7 0.00 0.19 0.19 42 1012.3
20260506193547 60 135 4.3 8.7 0.00 0.19 0.19 41 1012.1
20260506193048 60 135 2.6 6.1 0.00 0.19 0.19 41 1012.0
20260506192548 60 135 5.2 7.0 0.00 0.19 0.19 41 1011.9
20260506192047 60 135 4.3 5.2 0.00 0.19 0.19 42 1011.8
20260506191547 60 135 1.7 2.6 0.00 0.19 0.19 41 1011.6
20260506191048 60 135 6.1 7.0 0.00 0.19 0.19 41 1011.6
20260506190548 60 135 6.1 8.7 0.00 0.19 0.19 41 1011.6
20260506190047 61 135 5.2 6.1 0.00 0.19 0.19 40 1011.5
20260506185547 61 135 1.7 6.1 0.00 0.19 0.19 39 1011.5
20260506185047 61 135 7.0 12.2 0.00 0.19 0.19 39 1011.5
20260506184546 61 138 1.7 4.3 0.00 0.19 0.19 38 1011.3
20260506184048 61 135 4.3 7.8 0.00 0.19 0.19 37 1011.2
20260506183547 62 135 5.2 7.0 0.00 0.19 0.19 37 1011.2
20260506183048 61 135 4.3 10.4 0.00 0.19 0.19 37 1011.1
20260506182547 61 135 2.6 5.2 0.00 0.19 0.19 40 1011.0
20260506182047 62 135 4.3 5.2 0.00 0.19 0.19 40 1010.8
20260506181548 62 135 6.1 7.0 0.00 0.19 0.19 40 1010.8
20260506181047 62 135 7.0 10.4 0.00 0.19 0.19 37 1010.8
20260506180548 62 138 7.0 10.4 0.00 0.19 0.19 37 1010.6
20260506180048 63 135 5.2 5.2 0.00 0.19 0.19 36 1010.6
20260506175547 63 135 1.7 2.6 0.00 0.19 0.19 35 1010.5
20260506175048 63 135 2.6 5.2 0.00 0.19 0.19 35 1010.4
20260506174548 63 135 6.1 8.7 0.00 0.19 0.19 34 1010.5
20260506174047 64 136 2.6 8.7 0.00 0.19 0.19 31 1010.5
20260506173547 65 135 7.0 7.8 0.00 0.19 0.19 30 1010.2
20260506173048 65 135 10.4 17.4 0.00 0.19 0.19 30 1010.2
20260506172548 65 152 8.7 14.8 0.00 0.19 0.19 30 1010.2
20260506172047 65 153 12.2 18.2 0.00 0.19 0.19 30 1010.2
20260506171547 66 135 7.8 10.4 0.00 0.19 0.19 30 1010.1
20260506171048 66 135 10.4 15.6 0.00 0.19 0.19 30 1010.1
20260506170548 66 135 12.2 20.9 0.00 0.19 0.19 30 1009.9
20260506170047 67 135 10.4 13.0 0.00 0.19 0.19 30 1009.9
20260506165548 66 135 11.3 14.8 0.00 0.19 0.19 30 1009.7
20260506165048 67 135 12.2 14.8 0.00 0.19 0.19 30 1009.7
20260506164547 66 135 15.6 25.2 0.00 0.19 0.19 30 1009.6
20260506164047 68 135 13.9 18.2 0.00 0.19 0.19 30 1009.7
20260506163548 69 135 13.0 18.2 0.00 0.19 0.19 31 1009.6
20260506163048 71 152 7.0 13.0 0.00 0.19 0.19 39 1009.5
20260506162547 72 135 4.3 5.2 0.00 0.19 0.19 42 1009.5
20260506162047 72 117 1.7 2.6 0.00 0.19 0.19 45 1009.3
20260506161548 70 145 0.9 2.6 0.00 0.19 0.19 47 1009.4
20260506161048 69 143 4.3 6.1 0.00 0.19 0.19 45 1009.2
20260506160547 68 133 2.6 4.3 0.00 0.19 0.19 47 1009.2
20260506155550 68 158 2.6 5.2 0.00 0.19 0.19 48 1009.2
20260506155052 69 147 6.1 7.0 0.00 0.19 0.19 48 1009.2
20260506154552 68 122 5.2 7.0 0.00 0.19 0.19 50 1009.2
20260506154051 69 130 6.1 8.7 0.00 0.19 0.19 46 1009.3
20260506153550 70 135 2.6 5.2 0.00 0.19 0.19 39 1009.2
20260506153052 69 143 2.6 4.3 0.00 0.19 0.19 40 1009.3
20260506152551 68 112 4.3 5.2 0.00 0.19 0.19 48 1009.3
20260506152051 67 120 6.1 7.8 0.00 0.19 0.19 50 1009.3
20260506151552 67 112 2.6 4.3 0.00 0.19 0.19 38 1009.5
20260506151051 67 136 0.9 2.6 0.00 0.19 0.19 31 1009.4
20260506150551 68 146 7.0 10.4 0.00 0.19 0.19 30 1009.5
20260506150052 70 135 7.0 8.7 0.00 0.19 0.19 30 1009.4
20260506145552 70 135 2.6 4.3 0.00 0.19 0.19 30 1009.3
20260506145051 69 135 6.1 7.8 0.00 0.19 0.19 30 1009.5
20260506144551 70 135 6.1 8.7 0.00 0.19 0.19 28 1009.5
20260506144052 69 135 7.0 11.3 0.00 0.19 0.19 30 1009.4
20260506143551 68 135 6.1 7.8 0.00 0.19 0.19 30 1009.5
20260506143051 68 135 11.3 17.4 0.00 0.19 0.19 30 1009.4
20260506142551 68 135 6.1 8.7 0.00 0.19 0.19 31 1009.6
20260506142050 67 135 14.8 21.7 0.00 0.19 0.19 30 1009.7
20260506141551 66 135 12.2 20.0 0.00 0.19 0.19 31 1009.8
20260506141050 66 135 7.0 10.4 0.00 0.19 0.19 32 1009.8
20260506140552 66 135 8.7 14.8 0.00 0.19 0.19 32 1009.8
20260506140051 67 135 6.1 8.7 0.00 0.19 0.19 32 1009.8
20260506135551 67 135 8.7 17.4 0.00 0.19 0.19 31 1009.9
20260506135052 68 135 11.3 18.2 0.00 0.19 0.19 31 1009.6
20260506134551 69 135 10.4 14.8 0.00 0.19 0.19 30 1009.5
20260506134050 70 135 10.4 13.0 0.00 0.19 0.19 30 1009.5
20260506133552 71 135 2.6 8.7 0.00 0.19 0.19 32 1009.5
20260506133051 70 135 7.0 10.4 0.00 0.19 0.19 30 1009.6
20260506132551 70 151 4.3 13.0 0.00 0.19 0.19 30 1009.5
20260506132052 71 147 0.9 1.7 0.00 0.19 0.19 31 1009.6
20260506131551 69 135 6.1 7.0 0.00 0.19 0.19 31 1009.7
20260506131050 69 152 7.0 8.7 0.00 0.19 0.19 31 1009.7
20260506130552 70 135 7.0 8.7 0.00 0.19 0.19 37 1009.7
20260506130051 70 135 7.8 8.7 0.00 0.19 0.19 45 1009.9
20260506125551 69 135 2.6 4.3 0.00 0.19 0.19 50 1009.8
20260506125052 69 135 7.0 8.7 0.00 0.19 0.19 50 1009.9
20260506124551 68 139 1.7 4.3 0.00 0.19 0.19 50 1009.7
20260506124051 67 121 1.7 5.2 0.00 0.19 0.19 52 1009.7
20260506123550 67 143 2.6 4.3 0.00 0.19 0.19 54 1009.8
20260506123051 65 141 1.7 2.6 0.00 0.19 0.19 54 1009.9
20260506122552 65 135 2.6 4.3 0.00 0.19 0.19 55 1009.8
20260506122052 65 135 1.7 2.6 0.00 0.19 0.19 53 1009.7
20260506121551 65 135 4.3 5.2 0.00 0.19 0.19 55 1009.7
20260506121051 65 132 4.3 5.2 0.00 0.19 0.19 54 1009.5
20260506120551 66 158 5.2 8.7 0.00 0.19 0.19 53 1009.5
20260506120050 66 158 1.7 2.6 0.00 0.20 0.19 55 1009.5
20260506115552 65 119 2.6 6.1 0.00 0.20 0.19 55 1009.4
20260506115051 65 117 4.3 5.2 0.00 0.20 0.19 53 1009.4
20260506114551 66 136 6.1 7.8 0.00 0.20 0.19 52 1009.2
20260506114052 67 117 6.1 8.7 0.00 0.20 0.19 53 1009.2
20260506113551 67 117 6.1 8.7 0.00 0.20 0.19 51 1009.2
20260506113051 67 123 4.3 6.1 0.00 0.20 0.19 52 1009.3
20260506112550 66 152 6.1 7.8 0.00 0.20 0.19 53 1009.2
20260506112052 65 135 4.3 7.0 0.00 0.20 0.19 52 1009.2
20260506111551 66 120 7.8 10.4 0.00 0.20 0.19 53 1009.2
20260506111051 66 114 7.0 8.7 0.00 0.20 0.19 52 1009.2
20260506110551 67 121 6.1 7.0 0.00 0.20 0.19 52 1009.3
20260506110052 67 135 6.1 7.0 0.00 0.20 0.19 51 1009.4
20260506105551 67 152 2.6 5.2 0.00 0.20 0.19 51 1009.5
20260506105052 67 135 2.6 5.2 0.00 0.20 0.19 53 1009.6
20260506104551 67 116 4.3 6.1 0.00 0.20 0.19 51 1009.5
20260506104051 68 144 1.7 2.6 0.00 0.20 0.19 53 1009.6
20260506103551 66 135 2.6 4.3 0.00 0.20 0.19 51 1009.7
20260506103051 67 135 1.7 4.3 0.00 0.20 0.19 52 1009.9
20260506102550 66 146 2.6 5.2 0.00 0.20 0.19 54 1009.8
20260506102052 67 151 4.3 5.2 0.00 0.20 0.19 52 1009.9
20260506101550 67 135 2.6 2.6 0.00 0.20 0.19 50 1010.0
20260506101051 66 135 1.7 2.6 0.00 0.20 0.19 51 1010.1
20260506100551 65 136 2.6 5.2 0.00 0.20 0.19 56 1010.2
20260506100051 64 112 2.6 5.2 0.00 0.20 0.19 58 1010.2
20260506095551 64 135 1.7 2.6 0.00 0.20 0.19 56 1010.5
20260506095052 64 132 0.9 2.6 0.00 0.20 0.19 59 1010.4
20260506094551 63 112 0.9 0.9 0.00 0.20 0.19 60 1010.5
20260506094051 63 146 1.7 2.6 0.00 0.20 0.19 63 1010.5
20260506093552 62 112 1.7 2.6 0.00 0.20 0.19 63 1010.6
20260506093051 62 144 1.7 2.6 0.00 0.20 0.19 64 1010.6
20260506092551 61 135 0.9 1.7 0.00 0.20 0.19 61 1010.6
20260506092050 62 149 1.7 2.6 0.00 0.20 0.19 66 1010.7
20260506091552 61 134 1.7 2.6 0.00 0.20 0.19 66 1010.7
20260506091051 61 129 0.9 1.7 0.00 0.20 0.19 68 1010.7
20260506090552 61 158 0.9 0.9 0.00 0.20 0.19 65 1010.8
20260506090051 60 135 0.9 2.6 0.00 0.20 0.19 62 1010.9
20260506085551 61 135 2.6 5.2 0.00 0.20 0.19 61 1010.8
20260506085052 61 135 2.6 5.2 0.00 0.20 0.19 62 1010.9
20260506084551 62 135 2.6 5.2 0.00 0.20 0.19 68 1010.8
20260506084052 61 135 1.7 2.6 0.01 0.20 0.19 70 1010.9
20260506083551 59 142 1.7 2.6 0.01 0.20 0.19 70 1010.9
20260506083051 58 135 1.7 5.2 0.01 0.20 0.19 69 1011.0
20260506082552 58 135 5.2 7.0 0.01 0.20 0.19 69 1011.1
20260506082052 58 135 2.6 4.3 0.01 0.20 0.19 71 1011.0
20260506081550 58 135 2.6 5.2 0.01 0.20 0.19 73 1011.0
20260506081053 57 135 2.6 4.3 0.01 0.20 0.19 78 1011.1
20260506080551 56 135 4.3 5.2 0.01 0.20 0.19 80 1011.2
20260506073053 54 135 0.9 1.7 0.00 0.19 0.18 90 1011.1
20260506072551 54 135 0.0 0.0 0.00 0.19 0.18 89 1011.1
20260506072052 54 135 0.9 1.7 0.00 0.19 0.18 89 1011.1
20260506071552 54 135 2.6 5.2 0.00 0.19 0.18 89 1011.0
20260506071052 54 135 2.6 4.3 0.00 0.19 0.18 86 1011.0
20260506070551 55 135 0.9 0.9 0.01 0.19 0.18 86 1011.1
20260506062051 53 135 1.7 2.6 0.02 0.19 0.18 97 1011.1
20260506061552 52 158 2.6 5.2 0.02 0.19 0.18 96 1011.0
20260506061052 52 148 1.7 2.6 0.04 0.19 0.18 96 1011.0
20260506060551 52 135 2.6 5.2 0.04 0.18 0.17 97 1011.2
20260506051051 52 158 2.6 7.8 0.12 0.15 0.14 99 1011.1
20260506050550 52 112 4.3 5.2 0.12 0.14 0.13 99 1011.0
20260506045051 52 135 6.1 10.4 0.08 0.11 0.09 99 1011.2
20260506044550 52 120 6.1 11.3 0.08 0.11 0.09 99 1011.1
20260506044053 52 127 7.0 11.3 0.07 0.09 0.08 99 1011.0
20260506043551 52 135 7.8 12.2 0.06 0.08 0.07 99 1011.2
20260506043051 52 133 8.7 11.3 0.05 0.08 0.06 99 1011.2
20260506042552 52 143 5.2 7.0 0.04 0.07 0.05 99 1011.3
20260506042052 52 121 2.6 7.0 0.02 0.07 0.04 99 1011.2
20260506041551 52 147 1.7 6.1 0.04 0.08 0.04 99 1011.3
20260506041051 52 149 4.3 7.0 0.02 0.07 0.02 99 1011.2
20260506040552 52 156 1.7 5.2 0.01 0.06 0.01 99 1011.2
20260506035556 52 124 7.0 8.7 0.01 0.08 0.01 99 1011.2
20260506035056 52 135 4.3 5.2 0.01 0.08 0.01 99 1011.2
20260506034556 52 135 1.7 2.6 0.01 0.08 0.01 99 1011.3
20260506034056 52 135 2.6 6.1 0.01 0.09 0.01 99 1011.3
20260506033557 52 158 1.7 2.6 0.01 0.09 0.01 99 1011.4
20260506033056 52 144 1.7 4.3 0.01 0.11 0.01 99 1011.5
20260506032557 52 138 4.3 7.0 0.01 0.11 0.01 99 1011.4
20260506032056 52 139 2.6 5.2 0.01 0.11 0.01 99 1011.5
20260506031555 52 149 5.2 11.3 0.00 0.09 0.00 99 1011.5
20260506031057 52 117 6.1 10.4 0.00 0.11 0.00 99 1011.7
20260506030556 52 135 7.0 8.7 0.00 0.11 0.00 99 1011.8
20260506030055 52 158 2.6 4.3 0.00 0.12 0.00 99 1011.9
20260506025557 52 135 2.6 5.2 0.00 0.12 0.00 99 1012.1
20260506025056 52 147 5.2 6.1 0.00 0.12 0.00 99 1012.2
20260506024556 52 117 4.3 7.0 0.00 0.13 0.00 99 1012.3
20260506024055 52 129 4.3 5.2 0.00 0.13 0.00 99 1012.2
20260506023556 52 135 4.3 6.1 0.00 0.14 0.00 99 1012.2
20260506023056 52 135 4.3 5.2 0.00 0.14 0.00 99 1012.1
20260506022555 52 135 2.6 4.3 0.00 0.14 0.00 99 1012.1
20260506022056 52 135 4.3 6.1 0.00 0.15 0.00 99 1012.3
20260506021556 52 152 2.6 7.8 0.00 0.17 0.00 99 1012.5
20260506021055 52 122 2.6 4.3 0.00 0.17 0.00 99 1012.5
20260506020557 52 157 2.6 5.2 0.00 0.17 0.00 99 1012.7
20260506020056 52 135 2.6 2.6 0.00 0.17 0.00 99 1012.6
20260506015555 52 120 1.7 2.6 0.00 0.17 0.00 99 1012.6
20260506015057 52 139 2.6 5.2 0.00 0.17 0.00 98 1012.7
20260506014556 52 158 1.7 4.3 0.00 0.17 0.00 98 1012.7
20260506014056 52 139 1.7 2.6 0.00 0.17 0.00 98 1012.6
20260506013557 52 114 0.9 2.6 0.00 0.17 0.00 98 1012.7
20260506013056 53 135 1.7 2.6 0.00 0.17 0.00 97 1012.7
20260506012558 53 135 2.6 4.3 0.00 0.17 0.00 97 1012.7
20260506012057 53 132 1.7 4.3 0.00 0.17 0.00 97 1012.8
20260506011556 53 124 1.7 2.6 0.00 0.17 0.00 97 1012.8
20260506011056 53 135 2.6 4.3 0.00 0.17 0.00 96 1012.9
20260506010557 53 116 0.9 1.7 0.00 0.17 0.00 96 1013.0
20260506010057 53 135 0.9 1.7 0.00 0.17 0.00 96 1013.1
20260506005556 53 135 0.9 1.7 0.00 0.17 0.00 95 1013.3
20260506005057 53 135 1.7 2.6 0.00 0.17 0.00 95 1013.4
20260506004557 53 155 0.9 1.7 0.00 0.17 0.00 95 1013.6
20260506004056 53 128 1.7 2.6 0.00 0.17 0.00 95 1013.7
20260506003558 53 135 0.9 0.9 0.00 0.17 0.00 94 1013.7
20260506003057 53 158 0.0 0.9 0.00 0.17 0.00 94 1013.7
20260506002557 53 158 1.7 2.6 0.00 0.17 0.00 94 1013.8
20260506002056 53 135 0.9 1.7 0.00 0.17 0.00 94 1013.8
20260506001557 53 158 0.9 0.9 0.00 0.17 0.00 93 1014.0
20260506001056 53 158 0.0 0.9 0.00 0.17 0.00 93 1014.0
20260506000557 53 158 0.0 0.0 0.00 0.17 0.00 93 1014.1
20260506000057 53 158 0.0 0.9 0.00 0.17 0.00 93 1014.1
20260505235556 53 158 0.0 0.9 0.00 0.17 0.00 94 1014.2
20260505235056 53 112 0.0 0.0 0.00 0.17 0.00 94 1014.1
20260505234557 53 112 0.9 0.9 0.00 0.17 0.00 94 1014.2
20260505234056 53 135 0.0 0.0 0.00 0.17 0.00 94 1014.4
20260505233556 53 135 0.9 0.9 0.00 0.17 0.00 94 1014.4
20260505233057 53 145 1.7 2.6 0.00 0.17 0.00 94 1014.5
20260505232557 53 158 0.9 1.7 0.00 0.17 0.00 94 1014.5
20260505232057 53 151 2.6 4.3 0.00 0.17 0.00 94 1014.6
20260505231556 53 158 0.9 1.7 0.00 0.17 0.00 94 1014.5
20260505231057 53 158 0.9 1.7 0.00 0.17 0.00 94 1014.7
20260505230557 53 158 0.0 0.9 0.00 0.18 0.00 94 1014.8
20260505230057 53 158 0.0 0.0 0.00 0.18 0.00 94 1014.8
20260505225557 53 137 0.0 0.0 0.00 0.18 0.00 94 1014.7
20260505225057 53 135 0.9 0.9 0.00 0.18 0.00 94 1014.7
20260505224556 53 135 0.0 0.9 0.00 0.18 0.00 94 1014.7
20260505224057 53 135 0.9 1.7 0.00 0.18 0.00 94 1014.7
20260505223557 53 135 0.9 1.7 0.00 0.18 0.00 94 1014.6
20260505223057 53 135 0.0 0.9 0.00 0.18 0.00 94 1014.7
20260505222556 53 135 0.0 0.0 0.00 0.18 0.00 94 1014.6
20260505222057 53 135 0.0 0.9 0.00 0.18 0.00 95 1014.9
20260505221557 53 135 0.0 0.0 0.00 0.18 0.00 95 1015.0
20260505221056 53 152 2.6 4.3 0.00 0.18 0.00 95 1014.9
20260505220556 53 158 2.6 5.2 0.00 0.18 0.00 95 1015.1
20260505220057 53 158 0.9 1.7 0.00 0.18 0.00 95 1014.9
20260505215557 53 158 0.9 0.9 0.00 0.18 0.18 95 1015.2
20260505215056 53 135 1.7 2.6 0.00 0.18 0.18 95 1015.1
20260505214558 52 135 0.0 0.9 0.00 0.18 0.18 95 1015.1
20260505214057 53 158 0.0 0.0 0.00 0.18 0.18 95 1015.0
20260505213556 53 158 0.0 0.0 0.00 0.18 0.18 95 1015.0
20260505213056 52 158 0.0 0.0 0.00 0.18 0.18 95 1015.1
20260505212557 52 158 0.9 0.9 0.00 0.18 0.18 94 1015.2
20260505212057 52 158 1.7 2.6 0.00 0.19 0.18 94 1015.2
20260505211556 52 135 0.0 0.0 0.00 0.19 0.18 94 1015.2
20260505211057 52 135 0.0 0.9 0.00 0.19 0.18 94 1015.4
20260505210557 52 158 0.9 0.9 0.00 0.19 0.18 94 1015.5
20260505210056 52 158 0.0 0.0 0.00 0.20 0.18 93 1015.4
20260505205556 52 158 0.9 1.7 0.00 0.20 0.18 93 1015.5
20260505205058 52 158 0.0 0.9 0.00 0.20 0.18 93 1015.5
20260505204557 52 158 0.9 1.7 0.00 0.20 0.18 92 1015.5
20260505204056 52 136 1.7 2.6 0.00 0.20 0.18 92 1015.6